Tracking 30995 objects as of 5-Jul-2025
HD Live streaming from Space Station
objects crossing your sky now

STARLINK-1569

Track STARLINK-1569 now!
10-day predictions
STARLINK-1569 is classified as:


NORAD ID: 46039
Int'l Code: 2020-055N
Perigee: 553.4 km
Apogee: 555.3 km
Inclination: 53.1 °
Period: 95.6 minutes
Semi major axis: 6925 km
RCS: Unknown
Launch date: August 7, 2020
Source: United States (US)
Launch site: AIR FORCE EASTERN TEST RANGE (AFETR)
Your satellite tracking list
STARLINK-5901
Track 1 satellite(s)




NASA's NSSDC Master Catalog

Two Line Element Set (TLE):
1 46039U 20055N   25185.34820326  .00001466  00000-0  11733-3 0  9998
2 46039  53.0538 161.4672 0001329  84.4011 275.7129 15.06397542271452
Source of the keplerian elements: AFSPC